Home > Time Zones > World Clock > Weather > U.S.A. > Waco > Past weeks

Flag for U.S.A. Weather past 2 weeks in Waco, Texas, U.S.A.

Now
71 °F

Passing clouds.


Feels Like: 67 °F
Forecast: 72 / 92 °F
Wind: 15 mph from South

Location: Waco Regional Airport

Current Time: Jul 2, 2015 at 7:51:46 AM

Latest Report: Jul 2, 2015 at 6:51 AM


Visibility: 10 mi

Pressure: 29.98 "Hg

Humidity: 93%

Dew point: 69 °F

Location of WacoLocation

Historic Weather in Waco — Graph

°F

Waco temperature yesterday

Maximum temperature yesterday: 91 °F (at 3:51 PM)
Minimum temperature yesterday: 72 °F (at 5:51 AM)
Average temperature yesterday: 80 °F

Past Weeks' High & Low Weather Summary

 TemperatureHumidityPressure
High93 °F (Jun 22, 3:51 PM)97% (Jun 17, 9:51 AM)30.17 "Hg (Jun 17, 9:51 AM)
Low70 °F (Jun 27, 2:57 AM)39% (Jun 28, 4:51 PM)29.58 "Hg (Jun 17, 6:00 AM)
Average81 °F75%29.99 "Hg
* Reported Jun 17 6:00 AM — Jul 2 5:51 AM, Waco, Weather by CustomWeather, © 2015

Note: Actual official high and low records may vary slightly from our data, if they occured in-between our weather recording intervals... More about our weather records

Advertising

Waco weather history for previous 24 hours

 ConditionsComfort  
Time TempWeatherWind HumidityBarometerVisibility
5:51 AM
Thu, Jul 2
72 °FClear.9 mph91%29.98 "Hg10 mi
4:51 AM72 °FClear.9 mph91%29.97 "Hg10 mi
3:51 AM72 °FClear.8 mph93%29.96 "Hg10 mi
2:51 AM73 °FClear.12 mph90%29.95 "Hg10 mi
1:51 AM73 °FClear.10 mph90%29.96 "Hg10 mi
12:51 AM74 °FClear.12 mph88%29.97 "Hg10 mi
11:51 PM
Wed, Jul 1
75 °FClear.16 mph85%29.97 "Hg10 mi
10:51 PM77 °FClear.16 mph74%29.97 "Hg10 mi
9:51 PM79 °FClear.15 mph69%29.96 "Hg10 mi
8:51 PM80 °FSunny.16 mph69%29.95 "Hg10 mi
7:51 PM83 °FSunny.10 mph65%29.94 "Hg10 mi
6:51 PM84 °FSunny.18 mph61%29.95 "Hg10 mi
5:51 PM86 °FSunny.18 mph61%29.96 "Hg10 mi
4:51 PM90 °FSunny.20 mph56%29.96 "Hg10 mi
3:51 PM91 °FPassing clouds.13 mph50%29.96 "Hg10 mi
2:51 PM90 °FPassing clouds.14 mph52%29.98 "Hg10 mi
1:51 PM89 °FBroken clouds.14 mph55%30.00 "Hg10 mi
12:51 PM89 °FScattered clouds.13 mph53%30.01 "Hg10 mi
11:51 AM87 °FSunny.10 mph57%30.01 "Hg10 mi
10:51 AM85 °FSunny.12 mph61%30.02 "Hg10 mi
9:51 AM82 °FSunny.15 mph67%30.02 "Hg10 mi
8:51 AM78 °FSunny.9 mph79%30.02 "Hg10 mi
7:51 AM74 °FSunny.12 mph88%30.01 "Hg10 mi
Weather by CustomWeather, © 2015

See weather overviewHow to use our weather pages